Regional Weather Roundup
Issued by NWS Binghamton, NY

Home | Current Version | Previous Version | Text Only | Print | Product List | Glossary On
Versions: 1 2 3 4 5 6 7 8 9 10 11 12 13 14 15 16 17 18 19 20 21 22 23 24 25 26 27 28 29 30 31 32 33 34 35 36 37 38 39 40 41 42 43 44 45 46 47 48 49 50
000
ASUS41 KBGM 230210
RWRBGM

REGIONAL WEATHER ROUNDUP
NATIONAL WEATHER SERVICE BINGHAMTON NY
900 PM EST MON JAN 22 2018

Note: "fair" indicates few or no clouds below 12,000 feet with no
significant weather and/or obstructions to visibility.

* = Station(s) that does not report precipitation, such as rain,
snow, etc, also no thunder or fog.

NYZ009-015>018-022>025-036-037-044>046-055>057-062-230300
...Central New York...

CITY           SKY/WX    TMP DP  RH WIND       PRES   REMARKS
Binghamton     FAIR      40  39  97 SE10      29.91F WCI  33
Cortland       FAIR      43  41  93 E3        29.89F
Dansville      CLOUDY    47  40  76 SE7       29.82F
Elmira         FAIR      45  43  93 SE6       29.88F
Seneca Falls   CLEAR     43  41  93 S12       29.85F
Ithaca         FAIR      45  41  86 S15       29.88F
Hornell        MOCLDY    46  39  76 SE5       29.86F
Monticello     LGT RAIN  35  35 100 E10       30.06F VSB 1/4 WCI  27
Oneonta        PTCLDY    41 N/A N/A S6        29.94F
Penn Yan       FAIR      46  40  79 SW13      29.85F
Rome           CLOUDY    37  35  92 SE8       29.96F WCI  31
Sidney         PTCLDY    41  37  87 S5        29.97F
Syracuse       CLOUDY    37  37 100 NE13      29.87F WCI  29
$$

PAZ038>040-043-044-047-048-072-230300
...Northeast Pennsylvania...

CITY           SKY/WX    TMP DP  RH WIND       PRES   REMARKS
Hazleton       FAIR      45  39  81 SE9G20    29.99F
Scranton       FAIR      47  40  76 NE7       29.97F
$$
&&
KEY
WCI = Wind Chill Index
VSB = Visibility
HX  = Heat Index
$$



USA.gov is the U.S. government's official web portal to all federal, state and local government web resources and services.